Location: Cherry Hills
(36.0770°N, 86.6047°W)
Time: 02:09:45
(UTC+00:00)

Daily predictions for brighter satellites

Satellite Brightness Start Highest point End
(mag) Time Altitude Azimuth Time Altitude Azimuth Time Altitude Azimuth
CZ-4C R/B 3.7 00:00:33 10° NW 00:08:02 61° WSW 00:16:14 10° SSE
NOSS 3-2 (A) 3.9 00:03:43 10° S 00:08:42 34° ESE 00:13:47 11° NE
CSL-04 Debris 4.2 00:03:43 10° SSE 00:09:04 63° ENE 00:14:29 10° N
Cosmos 2082 Rocket 3.7 00:05:52 10° NNE 00:09:24 16° NE 00:10:17 16° ENE
Cosmos 1356 3.7 00:07:39 10° SSW 00:11:02 67° W 00:14:28 10° N
Cosmos 1908 3.1 00:07:51 10° S 00:11:44 71° E 00:15:37 10° NNE
COSMOS 2406 3.3 00:09:30 10° NNW 00:15:11 56° ENE 00:20:47 10° SE
Cosmos 1605 Rocket 4.0 00:09:53 10° N 00:15:57 55° E 00:21:53 10° SSE
Cosmos 1727 Rocket 4.1 00:13:06 10° SSE 00:18:58 47° E 00:24:50 10° NNE
Cosmos 1939 Rocket 3.3 00:18:35 17° SE 00:21:09 37° ENE 00:24:52 10° N
Lacrosse 5 rocket 1.5 00:19:54 10° NW 00:23:42 65° SW 00:27:16 13° SSE
Envisat 3.9 00:20:39 10° S 00:25:34 50° W 00:30:31 10° NNW
Cosmos 1934 Rocket 4.2 00:19:50 10° N 00:26:11 78° W 00:32:32 10° S
OAO 2 Rocket 3.5 00:22:09 10° W 00:27:25 72° S 00:30:11 28° ESE
Cosmos 1812 Rocket 3.8 00:24:32 10° SSE 00:28:44 46° E 00:33:00 10° NNE
NOSS 3-2 (C) 3.9 00:27:00 10° S 00:31:55 32° ESE 00:33:05 30° E
Meteor 1-11 4.2 00:27:36 10° N 00:33:24 83° E 00:39:12 10° S
Shenzhou-11 Module 3.8 00:31:20 10° NW 00:33:22 20° N 00:33:22 20° N
Cosmos 1328 4.3 00:30:49 10° NNW 00:34:44 59° W 00:38:36 10° S
YAOGAN 1 3.0 00:34:00 10° S 00:38:16 62° WSW 00:42:34 10° NNW
EO 1 Delta rocket 3.9 00:33:45 10° S 00:38:26 79° W 00:43:08 10° NNW
Delta 2 Rocket 3.5 00:35:27 10° SW 00:38:30 37° SSE 00:38:30 37° SSE
IRS-1A Rocket 4.3 00:36:18 19° SE 00:40:07 50° ENE 00:45:24 10° N
CZ-4 R/B 3.1 00:40:48 10° SSW 00:44:36 36° W 00:48:30 10° NNW
Cosmos 2297 4.3 00:39:38 10° SSE 00:44:03 34° ESE 00:44:03 34° ESE
Cosmos 2278 Rocket 2.6 00:39:41 10° SSW 00:45:17 64° WNW 00:50:57 10° NNE
Cosmos 44 4.4 00:49:18 10° S 00:52:18 29° SSE 00:52:18 29° SSE
CZ-2D R/B 3.6 00:53:36 14° S 00:56:48 63° W 01:00:38 10° NNW
Cosmos 839 Rocket 4.3 00:51:10 10° NNW 00:57:32 78° WSW 01:05:04 10° SSE
Cosmos 2100 Rocket 4.1 00:51:37 10° N 00:57:32 46° E 00:57:41 46° E
ADEOS Rocket 3.6 00:53:21 10° NNE 01:00:36 45° E 01:07:15 10° SSE
Meteosat 1 Rocket2 4.5 00:59:24 10° SW 01:01:23 21° SSW 01:01:23 21° SSW
Ariane Rocket 3.1 01:03:52 15° S 01:08:06 76° WSW 01:13:13 10° NNW
ATLAS 3B R/B 3.1 01:02:34 10° S 01:07:40 40° SE 01:07:40 40° SE
Cosmos 1153 Rocket 4.4 01:04:40 10° N 01:10:49 82° W 01:16:57 10° S
Lacrosse 5 3.4 01:06:44 10° NNW 01:09:38 23° NNE 01:09:38 23° NNE
SL-4 R/B 4.0 01:10:29 10° W 01:13:07 19° SW 01:13:43 18° SW
CZ-3 Stage 3 3.2 01:10:38 10° WSW 01:12:18 19° SW 01:12:18 19° SW
CENTAUR R/B 3.3 01:15:08 10° SSW 01:18:09 32° S 01:18:09 32° S
Cosmos 1833 Rocket 2.8 01:25:40 10° NNW 01:31:15 72° WSW 01:31:19 72° WSW
USA 238 DEB 4.5 01:27:12 10° SW 01:33:36 47° NW 01:38:54 16° NNE
USA 238 4.5 01:27:18 10° SW 01:33:42 48° NW 01:38:56 16° NNE
OAO 3 Rocket 4.1 01:29:02 10° W 01:32:38 46° WSW 01:32:38 46° WSW
USA 234 3.6 01:43:21 50° SSW 01:43:21 50° SSW 01:48:09 10° SW
H-2A R/B 4.0 01:49:24 20° N 01:49:24 20° N 01:51:02 10° N
Cosmos 2082 Rocket 3.2 01:48:21 10° NNW 01:52:10 43° NW 01:52:10 43° NW
Cosmos 1459 Rocket 4.5 01:51:52 10° NNW 01:57:15 56° WNW 01:57:15 56° WNW
H-2A R/B 4.4 02:31:22 10° W 02:59:41 56° WSW 02:59:41 56° WSW
COSMOS 2428 4.5 08:51:22 27° NE 08:51:22 27° NE 08:53:53 10° NNE
ATLAS 2AS CENTAUR R/B 3.3 08:59:26 59° SE 09:00:09 61° ESE 09:08:05 10° NE
ADEOS 4.3 09:19:35 10° NNE 09:23:27 48° NE 09:23:27 48° NE
COSMOS 2455 4.4 09:28:52 23° N 09:28:52 23° N 09:31:26 10° N
Milstar 3 Cent rocket 4.2 09:33:13 18° S 09:33:48 18° SSE 09:37:16 10° ESE
NOSS 3-2 (A) 4.5 09:28:07 14° NNW 09:34:54 63° NE 09:43:18 10° SE
USA 267 4.2 09:34:10 10° NNE 09:39:31 30° NNW 09:39:31 30° NNW
NOSS 0 Rocket 3.9 09:38:45 54° S 09:40:12 78° ESE 09:46:23 10° NNE
Cosmos 2333 Rocket 3.1 09:43:31 35° NNW 09:43:31 35° NNW 09:47:05 10° N
Cosmos 2278 Rocket 3.6 09:36:53 10° N 09:42:08 37° ENE 09:47:21 10° SE
Aureole 1 Rocket 4.4 09:49:28 41° NNW 09:49:28 41° NNW 09:53:14 10° N
Cosmos 2074 Rocket 4.3 09:44:54 10° S 09:51:04 68° E 09:57:15 10° NNE
Meteor 1-21 4.0 09:52:12 48° SSW 09:53:50 82° W 09:59:29 10° N
Cosmos 1140 Rocket 4.4 09:50:23 10° S 09:55:20 47° ESE 10:00:17 10° NNE
Cosmos 1758 4.2 09:55:39 10° N 09:59:32 48° E 10:03:26 10° SSE
Cosmos 614 Rocket 4.0 09:57:08 32° S 09:59:37 81° ESE 10:04:52 10° NNE
BREEZE-M DEB (TANK) 2.4 10:01:22 72° ESE 10:01:22 72° ESE 10:03:38 10° ESE
PAYLOAD A 3.9 09:59:44 10° NNE 10:04:37 85° ESE 10:09:41 10° SSW
Cosmos 2181 Rocket 3.9 09:59:30 10° NNW 10:05:44 62° W 10:11:52 10° S
Cosmos 2219 Rocket 3.3 10:10:43 26° NW 10:10:43 26° NW 10:14:12 10° N
USA 234 3.3 10:04:08 10° SE 10:10:40 81° NE 10:15:59 17° NW
NOSS 3-4 (A) 3.3 10:08:37 40° SW 10:10:47 69° WNW 10:17:02 10° NNE
NOSS 3-4 (C) 3.3 10:08:37 39° SW 10:10:52 70° WNW 10:17:08 10° NNE
IDEFIX/ARIANE 42P 3.1 10:06:11 10° N 10:10:18 39° NW 10:10:18 39° NW
RESURS DK-1 4.0 10:09:51 10° S 10:13:35 34° ESE 10:17:21 10° NE
Meteor 1-31 Rocket 3.0 10:11:16 10° NNE 10:15:03 67° E 10:18:48 10° S
Cosmos 1707 2.7 10:13:27 10° S 10:17:21 83° E 10:21:16 10° N
Cosmos 2237 Rocket 2.1 10:15:09 29° SW 10:18:04 65° WNW 10:23:44 10° NNE
MSX 3.8 10:13:06 10° N 10:18:43 58° WNW 10:24:16 10° SSW
Cosmos 1470 2.6 10:18:21 10° N 10:22:16 86° W 10:26:09 10° S
CZ-4B R/B 3.8 10:23:51 10° N 10:27:53 84° WNW 10:32:04 10° SSW
Cosmos 1023 Rocket 4.3 10:24:40 10° SSW 10:29:51 77° WNW 10:35:01 10° NNE
Okean 1-7 Rocket 4.4 10:27:14 10° S 10:31:31 53° E 10:35:52 10° NNE
Cosmos 1484 Rocket 4.0 10:28:16 10° NNE 10:31:53 42° E 10:35:33 10° S
COSMOS 2428 4.1 10:33:26 19° NW 10:33:26 19° NW 10:36:56 10° N
ATLAS 3B R/B 3.2 10:27:30 10° NNW 10:34:10 62° NE 10:41:00 10° SE
Cosmos 1980 4.0 10:32:22 25° WSW 10:35:11 43° WNW 10:40:33 10° N
H-2A R/B 3.4 10:36:12 10° NNW 10:39:42 28° WNW 10:39:42 28° WNW
Cosmos 676 Rocket 3.9 10:34:36 10° SSW 10:39:54 82° WNW 10:45:12 10° NNE
Cosmos 1726 4.3 10:37:28 10° NNE 10:40:40 28° ENE 10:43:51 10° SE
COSMO-SKYMED 1 3.8 10:39:33 10° SE 10:43:41 44° ENE 10:47:48 10° N
Meteor 1-4 Rocket 2.4 10:40:16 10° SSW 10:43:45 60° W 10:47:11 10° N
CENTAUR R/B 3.3 10:38:24 10° NNW 10:46:41 84° ENE 10:55:27 10° SSE
ATLAS 2AS CENTAUR R/B 3.8 10:46:57 19° W 10:51:38 33° NW 10:58:45 10° NNE
Cosmos 407 Rocket 4.2 10:48:36 17° WSW 10:51:46 31° WNW 10:56:19 10° N
IUS-9 SRM-1 3.9 10:51:11 10° SSW 10:53:05 18° SSE 10:57:01 10° ESE
Cosmos 2154 Rocket 3.9 10:47:41 10° SSW 10:53:49 64° W 10:59:59 10° N
ALOS 3.4 10:51:43 10° NNE 10:56:15 48° E 11:00:45 10° S
COBE Rocket 4.2 10:52:23 10° SSE 10:57:20 75° ENE 11:02:27 10° N
CZ-2C R/B 3.1 10:55:03 10° N 10:59:42 34° WNW 11:04:17 10° SW
USA 238 DEB 4.5 10:53:41 10° NW 11:00:04 34° WSW 11:06:33 10° S
USA 238 4.5 10:53:47 10° NW 11:00:11 34° WSW 11:06:40 10° S
Cosmos 1726 Rocket 3.4 10:57:41 10° N 11:02:00 79° W 11:06:18 10° S
Cosmos 389 Rocket 3.8 11:03:43 17° W 11:04:40 19° WNW 11:07:11 10° NNW
Cosmos 2228 2.9 11:00:38 10° NNW 11:04:52 67° W 11:09:03 10° S
SL-16 R/B 2.2 11:05:07 10° SSW 11:10:42 64° WNW 11:16:21 10° NNE
Okean O Rocket 1.9 11:06:23 10° NNE 11:10:47 71° ESE 11:15:07 10° S
Cosmos 44 3.2 11:08:26 10° NW 11:12:36 47° WSW 11:16:43 10° S
Cosmos 1437 Rocket 2.6 11:10:18 10° SSW 11:14:03 64° W 11:17:49 10° N
Cosmos 921 Rocket 4.4 11:11:41 10° NW 11:14:23 17° W 11:17:04 10° SW
Meteor 1-16 Rocket 4.1 11:10:26 10° NNW 11:15:43 67° W 11:21:03 10° S
CZ-4B R/B 4.1 11:13:05 10° NNW 11:16:04 21° WNW 11:18:57 10° WSW
Meteor 2-17 Rocket 4.4 11:10:33 10° S 11:16:37 85° W 11:22:42 10° N
Cosmos 1850 Rocket 4.1 11:12:46 10° SSW 11:17:57 82° ESE 11:23:08 10° NNE
Cosmos 2341 Rocket 4.0 11:11:52 10° SSW 11:18:06 71° W 11:24:20 10° N
PSLV R/B 2.6 11:16:03 12° WSW 11:18:25 71° NNW 11:21:04 10° ENE
FENGYUN 3A 3.9 11:13:15 10° NNE 11:18:43 80° ESE 11:24:08 10° S
Nadezhda 3 Rocket 4.2 11:12:50 10° NNW 11:18:58 52° W 11:25:03 10° SSW
Cosmos 2058 Rocket 3.0 11:14:47 10° N 11:19:12 80° W 11:23:38 10° S
KORONAS-FOTON 3.7 11:19:19 10° S 11:23:04 82° W 11:26:52 10° N
Cosmos 2278 Rocket 3.1 11:21:20 10° NW 11:25:58 26° WSW 11:30:35 10° SSW
Cosmos 2297 3.8 11:20:22 10° NNW 11:26:09 86° ENE 11:31:52 10° SSE
Cosmos 1953 3.5 11:24:36 10° NW 11:27:43 22° W 11:30:48 10° SW
METEOR-M 4.1 11:23:57 10° N 11:29:17 76° WNW 11:34:36 10° SSW
